Location: Pace/Milton
(30.6162°N, 87.1503°W)
Time: 11:24:16
(UTC-06:00)

Envisat - Pass Details

Date: 14 December 2021
Orbit: 764 x 766 km, 98.2° (Epoch: 23 January)

Event Time Altitude Azimuth Distance (km) Brightness Sun altitude
Rises 03:25:56 0° 38° (NE) 3,231 6.6 -40.3°
Reaches altitude 10° 03:29:33 10° 65° (ENE) 2,300 6.0 -39.5°
Maximum altitude 03:31:55 13° 93° (E) 2,077 5.9 -39.0°
Drops below altitude 10° 03:34:17 10° 121° (ESE) 2,293 6.1 -38.5°
Sets 03:37:51 0° 148° (SSE) 3,214 6.7 -37.8°
